Погода Сумы

Погода Сумы : погода сейчас, прогноз погоды и архив. Всё, что Вы хотите узнать о погоде Сумы!

Хотите узнать прогноз погоды Сумы? Тогда Вам сюда: Погода Сумы

Поиск расширенной информации на нашем сайте:

Другие новости

Новости СМИ2

Главная страница сайта

Новости сайта

03.07.2017

Напоминаем, что на нашем специализированном сайте Метеоцентр.Азия вы можете получить высокодетализированные автоматические прогнозы погоды по пунктам России, СНГ и мира в авиационном формате (включающие направление и скорость ветра, видимость, явления погоды, количество и форму облачности, нижнюю и верхнюю границу облачности).

Рекомендуем: Подборка материалов по истории и теории экономики http://www.econbook.ru/

Погода Сумы - сегодня

Время (UTC), дата Ветер
(°,м/с) 
Видим.   Явления Облачность Т
(°С)
Тd
(°С)
f(%) Тe
(°С)
Pmin
(гПа)
dP
(гПа)
Po
(мм)
O2
(г/м3)
Тmin Tmax R s Состояние
почвы
03 14.10.18 290 (З) 10 км    ясно 
+4.1 +1.3 82 +3  1032.1  -0.5  757  300           
06 14.10.18 300 (СЗ) 10 км    3/0 верхняя 
[Ci fib]
+7.1 +3.6 78 +7  1031.7  -0.2  757  297  +3.6         
09 14.10.18 310 (СЗ) 10 км    4/0 верхняя 
[Ci fib]
+16.1 +4.9 47 +16  1031.1  0.1  757  287           
15 14.10.18 320 (СЗ) 10 км    8/0 верхняя 
[Ci fib]
+16.7 +6.8 52 +18  1028.8  -0.9  755  286           
18 14.10.18 340 (С) 10 км    3/0 верхняя 
[Ci fib]
+12.7 +7.1 69 +13  1029.4  0.3  755  290    +19.2       
21 14.10.18 290 (З) 10 км    ясно 
+8.8 +5 77 +10  1029.9  0.2  756  294           
00 15.10.18 280 (З) 10 км    4/0 верхняя 
[Ci fib]
+7.1 +4.8 85 +8  1030.1  0.1  756  296           
03 15.10.18 310 (СЗ) 10 км    4/0 верхняя 
[Ci fib]
+6.3 +4.7 89 +7  1030.3  0.1  756  297           
06 15.10.18 290 (З) 10 км    6/0 верхняя 
[Ci fib]
+7.5 +5 84 +8  1030.4  0.2  756  296  +5.4         
09 15.10.18 350 (С) 10 км    3/0 верхняя 
[Ci fib]
+17.7 +9.9 60 +20  1029.9  0.3  756  284           
12 15.10.18 360 (С) 10 км    ясно 
+21 +11.2 53 +24  1028.8  -0.8  756  281           
15 15.10.18 020 (С) 10 км    ясно 
+18.2 +9.4 56 +20  1028.8  -0.2  755  284           
18 15.10.18 350 (С) 10 км    ясно 
+12.7 +8.5 76 +14  1029.2  -0.1  755  289    +21.2       
21 15.10.18 тихо ()   10 км    ясно 
+9.8 +6.6 80 +10  1029.5  0.1  755  293           
00 16.10.18 тихо ()   10 км    ясно 
+7.3 +5 85 +7  1029.7  755  296           
03 16.10.18 тихо ()   10 км    ясно 
+6.6 +5.2 91 +7  1030.2  0.4  756  296           
09 16.10.18 080 (В) 10 км    ясно 
+20.1 +9.3 50 +20  1028.9  -0.5  756  282           
12 16.10.18 120 (ЮВ) 10 км    ясно 
+23.1 +9.4 42 +23  1027.7  -1  755  279           
15 16.10.18 070 (В) 10 км    ясно 
+20.3 +10.1 52 +21  1027.2  -0.7  754  281           
18 16.10.18 170 (Ю) 10 км    ясно 
+14.7 +8.8 68 +16  1027.8  0.2  754  287    +23.6       
21 16.10.18 310 (СЗ) 10 км    ясно 
+10.6 +7.2 79 +12  1028.1  754  291           
00 17.10.18 130 (ЮВ) 10 км    ясно 
+8.7 +6.5 86 +10  1028.1  -0.2  754  293           
03 17.10.18 090 (В) 10 км    ясно 
+7.7 +6.8 94 +9  1028.3  0.1  754  294           
06 17.10.18 тихо ()   10 км    ясно 
+10.1 +9.1 93 +10  1028.4  0.3  755  292  +6.4         
09 17.10.18 060 (СВ) 10 км    ясно 
+20.4 +12.4 60 +25  1027.5  755  281           
Время (UTC), дата Ветер
(°,м/с) 
Видим.   Явления Облачность Т
(°С)
Тd
(°С)
f(%) Тe
(°С)
Pmin
(гПа)
dP
(гПа)
Po
(мм)
O2
(г/м3)
Тmin Tmax R s Состояние
почвы

Для получения пояснительной информации подведите курсор к названию столбца.

ПОГОДА Сумы - архив

Всё, что Вы хотите узнать о погоде Сумы - удобно и подробно!

Выберите нужную дату (начиная с 1 января 2015* года) и нажмите кнопку "Найти".
Будут отображены архивные сводки погоды по пункту Сумы, начиная с указанной даты.


Отображать данные в формате CSV (для использования в таблицах Excel)


Внимание! Наш архив погоды предназначен исключительно для личного некоммерческого использования в познавательных целях. Если Вам необходимы официальные справки о состоянии погоды (для производственных, юридических, коммерческих и т.п. целей), обращайтесь в органы Росгидромета.

*Примечание: данная дата относится к архиву по метеостанциям СССР (Россия, СНГ, Балтия).
Архив по метеостанциям Зарубежной Европы и Азии (кроме Китая) хранится 10 дней, по другим регионам земного шара (Китай, Африка, Америка, Австралия, Океания) - 1 день.

Сумы - район местоположения метеостанции


Название, широта, долгота, высота метеостанции:
Сумы 50.9°ш. 34.7°д. 181 м над ур. моря [Украина]

Дополнительная информация

В oтличие oт бoльшинства пoгoдных сайтoв мы публикуем пoдрoбную метеoинфoрмацию в детальнoм прoфессиoнальнoм фoрмате.

Характеристики температуры и влажнoсти вoздуха измеряются на высoте 2 м в тени вдали oт зданий и деревьев.
Скoрoсть ветра измеряется на высoте 10 м (на урoвне рoста челoвека скoрoсть ветра ниже в 1.5-2 раза). Если метеoстанция нахoдится в гoрoде или в лесу, тo скoрoсть ветра занижена на 2-4 м/с пo сравнению с oткрытым местoм. Скoрoсть ветра над акватoриями крупных рек и oзёр, а также на вершинах хoлмoв на 2-5 м/с выше, чем в oбычных услoвиях.
Атмoсфернoе давление в разных тoчках местнoсти мoжет значительнo oтличаться oт давления на метеoстанции, в зависимoсти oт услoвий рельефа (при пoдъёме на 10 м давление пoнижается примернo на 1 мм рт.ст.).